Regional Weather Roundup
Issued by NWS

Home | Current Version | Previous Version | Graphics & Text | Print | Product List | Glossary On
Versions: 1 2 3 4 5 6 7 8 9 10 11 12 13 14 15 16 17 18 19 20 21 22 23 24 25 26 27 28 29 30 31 32 33 34 35 36 37 38 39 40 41 42 43 44 45 46 47 48 49 50
296
ASUS45 KBOU 260507
RWRCO

WEATHER ROUNDUP FOR COLORADO
NATIONAL WEATHER SERVICE DENVER/BOULDER CO
1100 PM MDT MON SEP 25 2017

NOTE: "FAIR" INDICATES FEW OR NO CLOUDS BELOW 12000 FEET WITH NO
SIGNIFICANT WEATHER AND/OR OBSTRUCTIONS TO VISIBILITY.

COZ001>005-013-030-031-260600-
...NORTHWEST COLORADO...

CITY           SKY/WX    TMP DP  RH WIND       PRES   REMARKS
CRAIG          FAIR      33  27  78 NW3       30.17R
HAYDEN         FAIR      37  27  67 CALM      30.19R
MEEKER         FAIR      36  29  75 VRB6      30.16R
RABBIT EARS PA FAIR      28  23  80 W6        30.25R WCI  22
STEAMBOAT SPGS FAIR      37  28  70 CALM      30.18R
WALDEN         FAIR      36  27  69 NW3       30.21S
$$

COZ006>008-011-260600-
...WEST CENTRAL VALLEYS...

CITY           SKY/WX    TMP DP  RH WIND       PRES   REMARKS
GRAND JUNCTION FAIR      50  33  52 NW3       30.07R
MONTROSE       FAIR      44  32  62 S5        30.12R
EAGLE          FAIR      41  27  57 CALM      30.18R
RIFLE          FAIR      46  32  58 SE3       30.11R
DELTA          FAIR      50  32  50 NE6       30.09R
NUCLA          FAIR      45  28  53 E8        30.13R
$$

COZ017>023-064>068-260600-
...SOUTHWEST COLORADO...

CITY           SKY/WX    TMP DP  RH WIND       PRES   REMARKS
DURANGO        FAIR      39  21  48 NE5       30.09R
CORTEZ         FAIR      42  32  67 E6        30.07R
PAGOSA SPRINGS FAIR      37  22  52 CALM      30.14S
TELLURIDE      FAIR      37  23  57 SE7       30.20F
WOLF CREEK PAS FAIR      30   7  37 SW8       30.35S WCI  23
$$

COZ009-010-012-014-032>034-037-058>063-260600-
...CENTRAL COLORADO...

CITY           SKY/WX    TMP DP  RH WIND       PRES   REMARKS
ASPEN          FAIR      35  25  66 S8        30.17R WCI  29
BUENA VISTA    CLOUDY    42  37  79 SE3       30.19S
COPPER MTN     FAIR      30  21  69 MISG      30.29S
BERTHOUD PASS  FAIR      21  12  68 NW12      30.29F WCI   9
COTTONWOOD PAS   N/A     41  37  87 E3        30.24S
GUNNISON       FAIR      35  18  49 N6        30.17R WCI  30
KREMMLING      FAIR      37  27  65 S3        30.20R
LEADVILLE      FAIR      28  15  58 S3        30.22R
MONARCH PASS   FOG       27  27 100 E6        30.40R VSB<1/4 WCI  20
SALIDA         FAIR      43  37  82 CALM      30.25R
SUNLIGHT       FAIR      30  21  69 CALM      30.29S
WILKERSON PASS SNOW     N/A N/A N/A S6        30.31S VSB<1/4
$$

COZ069>075-260600-
...SAN LUIS VALLEY/SANGRE DE CRISTO MOUNTAINS...

CITY           SKY/WX    TMP DP  RH WIND       PRES   REMARKS
ALAMOSA        FAIR      33  27  78 SW3       30.12R
DEL NORTE      FAIR      39  15  36 W8        30.14S
LA VETA PASS   FOG       34  34 100 NE8G18    30.36R VSB<1/4 WCI  27
SAGUACHE       FAIR      45  19  36 N12       30.15R
$$

COZ035-036-038>040-260600-
...NORTHERN COLORADO FRONT RANGE...

CITY           SKY/WX    TMP DP  RH WIND       PRES   REMARKS
DENVER INTL AP MOCLDY    44  41  89 SE8       30.14R
DMNS CITY PARK   N/A     44  43  94 SE9G15    30.14S
AURORA         CLOUDY    43  43  99 SE8       30.15S
FRONT RANGE AP FAIR      45  43  93 SE6       30.16S
ERIE MUNI ARPT CLOUDY    48  44  85 E9        30.20R
BOULDER MUN AP MOCLDY    45  45 100 CALM      30.14R
CENTENNIAL     CLOUDY    47  44  90 CALM      30.15R
BROOMFIELD     MOCLDY    46  43  87 E6        30.15R
FORT COLLINS   CLOUDY    47  43  86 SE6       30.15R
LONGMONT       CLOUDY    49  45  84 E5        30.17R
$$

COZ041-046-047-076>085-087-088-260600-
...PIKES PEAK/PALMER DIVIDE AND SOUTHERN FOOTHILLS...

CITY           SKY/WX    TMP DP  RH WIND       PRES   REMARKS
COLO. SPRINGS  LGT RAIN  46  44  93 SE8       30.19R
A. F. ACADEMY  CLOUDY    44  43  94 SW5       30.17S
SCHRIEVER AFB  CLOUDY    45  45 100 MISG      30.18R
CHEYENNE MTN   LGT SNOW  42  41  97 SW5       30.14R
ELLICOTT       CLOUDY   N/A N/A N/A E6        30.16S
FALCON         RAIN      42  42  98 SE3       30.20R
FORT CARSON    HVY RAIN  46  45  97 W3        30.16S FOG
LIMON            N/A    N/A N/A N/A MISG      30.16R
MONUMENT HILL  CLOUDY    41  39  93 CALM      30.19S
CANON CITY     NOT AVBL
WALSENBURG     NOT AVBL
TRINIDAD       CLOUDY    48  47  96 E7        30.16R
$$

COZ042>045-048>051-090-091-260600-
...NORTHEAST COLORADO...

CITY           SKY/WX    TMP DP  RH WIND       PRES   REMARKS
GREELEY ARPT   CLOUDY    46  43  89 E7        30.16R
AKRON          CLOUDY    47  41  80 NE7       30.15S
BURLINGTON     CLOUDY    48  47  96 NE9       30.15R FOG
WRAY           CLOUDY   N/A N/A N/A N6        30.15S
YUMA           CLOUDY    46  43  87 N3        30.15R
STERLING       CLOUDY    48  43  81 E6        30.14S
HOLYOKE        MOCLDY    48  45  87 CALM      30.16R
FORT MORGAN    CLOUDY    46  41  81 E5        30.16R
$$

COZ086-089-092>099-260600-
...SOUTHEAST COLORADO...

CITY           SKY/WX    TMP DP  RH WIND       PRES   REMARKS
PUEBLO         CLOUDY    52  47  83 SE9       30.14S
LA JUNTA       CLOUDY    50  48  93 E3        30.13F
LAMAR          CLOUDY    51  47  86 NE7       30.11S
SPRINGFIELD      N/A     47  47 100 N12       30.12R
$$




USA.gov is the U.S. government's official web portal to all federal, state and local government web resources and services.